Wind_Speed
53 54 56 58 59 59 59 59 56 55 56 56 57 59 61 64 66 68 71 74 76 78 81 83 83 84 84 85 87 89 90 91 91 92 94 94 93 92 92 93 95 95 98 101 105 108 106 103 106 113 110 111 111 109
55 54 53 51 49 51 54 55 56 56 57 57 59 61 66 70 75 79 81 83 84 85 85 84 84 83 83 84 86 87 87 88 89 90 90 90 91 93 94 94 96 98 99 99 100 101 105 102 102 104 103 102 106 105
57 57 57 57 56 55 55 56 58 60 60 60 63 68 69 69 71 71 71 75 77 79 81 83 83 84 84 86 87 88 88 89 89 89 89 88 89 90 90 92 94 92 91 92 93 93 95 95 92 93 94 96 96 100
64 60 59 57 57 58 57 57 59 60 61 63 64 60 58 51 48 45 41 42 46 52 58 64 69 73 75 76 78 79 79 80 81 83 86 90 91 92 90 83 80 81 81 78 70 69 73 74 73 73 76 81 85 94
63 60 59 58 57 57 57 56 57 60 60 57 53 46 41 42 42 34 32 32 35 39 43 46 51 57 62 68 72 76 79 83 85 89 92 94 92 83 77 75 70 74 66 59 54 60 57 59 62 61 64 70 72 76
62 60 58 58 57 57 56 55 53 52 47 42 41 43 45 44 42 42 43 43 46 48 52 56 59 64 70 74 79 84 87 89 89 87 86 84 80 77 68 67 69 62 57 55 49 49 50 51 56 59 60 63 65 66
61 58 55 54 53 52 51 47 46 41 41 43 45 46 45 47 47 45 45 47 49 49 52 57 61 66 70 74 77 79 81 82 82 81 82 80 75 68 62 65 62 60 54 49 44 43 45 48 48 52 51 53 54 56
63 58 51 48 45 44 41 41 39 39 39 40 42 44 47 47 46 48 48 48 50 54 58 63 67 70 73 75 76 77 77 76 75 74 72 69 66 61 57 61 58 55 51 47 42 39 42 46 45 48 47 47 48 51
53 49 51 45 44 40 39 38 36 37 42 45 47 50 50 49 49 49 49 52 55 59 65 68 71 74 74 72 69 67 67 64 63 62 59 58 57 53 52 54 55 52 48 45 41 40 36 37 38 38 41 43 44 48
51 42 40 42 39 36 38 36 38 40 44 49 49 49 49 49 49 50 54 58 61 67 71 75 73 68 65 62 59 55 55 52 49 47 45 46 45 45 45 48 50 48 46 41 41 40 35 34 36 38 39 43 43 45
43 38 35 38 38 37 36 37 39 44 49 49 47 48 48 48 51 55 59 63 69 72 75 70 64 59 54 49 47 47 45 41 38 36 34 35 34 35 37 37 38 40 40 38 38 36 34 35 40 42 41 41 42 45
38 37 34 36 37 37 38 40 42 42 40 43 46 46 48 51 55 59 63 70 74 74 67 60 53 48 44 43 40 39 40 39 38 35 30 28 28 31 29 29 30 31 32 33 32 32 34 37 36 36 35 34 34 35
36 35 35 35 36 34 35 35 37 41 41 44 46 49 52 56 60 64 69 73 73 65 57 51 47 44 42 39 36 33 34 36 33 30 30 28 24 25 24 24 24 25 26 26 28 31 31 31 25 22 22 26 27 27
37 36 35 37 36 35 34 35 37 42 45 47 49 52 55 60 63 68 71 70 63 53 46 44 41 40 39 38 33 25 23 28 33 26 25 21 20 21 22 21 24 22 22 24 26 24 22 21 21 22 19 20 20 21
37 34 33 34 35 36 37 39 41 43 46 50 53 56 58 62 66 70 67 58 48 42 40 39 39 38 37 37 34 26 20 23 26 21 18 19 21 20 20 20 22 22 22 19 16 17 18 19 18 15 13 11 12 16
33 33 34 34 35 36 38 40 42 45 49 52 54 58 60 65 69 65 54 44 38 34 32 33 36 35 36 31 29 24 20 18 18 17 17 18 21 22 22 24 24 22 18 12 13 16 10 8 5 8 5 6 12 18
33 33 33 34 36 37 39 41 44 48 50 52 56 58 63 67 62 52 42 36 31 32 34 35 35 36 31 24 23 22 19 16 17 16 17 18 22 25 27 28 26 21 17 13 12 3 4 3 3 3 5 15 23 29
30 31 32 33 34 37 40 41 43 47 50 53 57 60 63 59 48 42 39 36 34 34 34 28 31 30 28 24 21 17 16 15 17 15 19 21 25 29 32 32 30 24 22 19 15 11 10 5 10 12 14 21 28 32
26 28 29 30 31 33 36 40 44 47 50 55 59 60 52 44 40 36 33 33 32 29 26 26 26 28 28 25 21 17 15 16 17 18 21 25 29 33 36 34 32 27 25 24 23 18 20 11 11 11 13 18 29 41
21 23 24 27 32 36 40 41 44 49 53 56 52 45 41 35 32 33 35 33 32 28 25 22 24 27 26 25 20 17 14 15 16 18 22 27 32 37 39 39 36 28 26 26 29 24 23 19 22 16 12 18 26 42
21 24 28 32 36 38 40 45 48 53 50 43 37 33 31 27 30 33 32 27 26 27 25 23 25 28 25 22 18 15 14 13 17 16 20 26 31 34 38 40 39 34 30 32 32 33 28 27 25 27 25 20 19 32
25 29 33 35 38 42 46 49 45 38 32 28 25 28 28 30 30 28 27 27 25 24 21 18 18 18 17 14 13 12 12 12 12 12 14 19 26 31 35 38 41 40 34 34 37 37 36 34 34 32 31 29 29 25
29 32 35 39 44 44 40 33 28 24 22 22 22 24 24 27 24 21 22 24 24 22 22 21 19 17 16 17 16 12 10 10 9 10 11 13 17 23 23 23 31 38 40 37 35 35 39 38 37 39 39 39 36 34
31 36 40 37 30 24 20 16 16 15 14 13 13 13 15 19 23 25 25 24 24 23 22 20 16 16 16 14 13 10 9 8 6 6 8 9 11 15 20 24 23 21 27 34 35 36 37 41 44 43 43 44 43 41
30 24 19 14 11 10 10 11 10 8 7 8 9 13 19 21 21 21 22 22 20 18 18 17 15 11 10 10 11 9 7 5 5 4 3 3 5 8 11 15 17 21 22 21 20 24 30 32 36 39 43 44 45 49
8 6 6 6 9 11 8 7 6 7 10 14 17 18 19 19 20 21 20 20 18 16 14 13 13 15 13 12 11 10 10 10 9 7 6 5 3 1 2 5 8 11 14 18 21 23 25 30 34 37 39 38 37 40
9 12 13 13 13 14 14 13 11 12 14 15 16 17 19 22 23 23 24 25 23 20 19 20 21 21 21 20 21 21 21 20 18 17 16 13 10 9 7 5 2 2 5 9 12 15 20 24 27 30 32 36 41 43
19 18 18 17 15 14 13 13 13 15 16 16 18 20 24 23 24 25 27 28 27 27 27 28 30 31 31 32 32 31 29 27 28 27 25 24 24 22 19 17 17 13 9 6 4 4 8 11 15 19 22 25 28 31
20 19 17 16 15 15 14 13 13 14 13 13 17 20 22 24 25 29 30 31 32 35 35 37 38 37 37 38 39 39 39 38 38 40 41 40 37 35 34 32 30 29 27 24 21 17 14 11 10 9 10 11 13 14
21 21 18 17 16 14 12 13 14 12 11 15 16 16 18 20 21 25 27 29 30 33 34 34 34 34 38 39 40 40 40 39 38 40 42 41 39 39 38 38 37 37 37 36 33 31 29 27 24 21 18 13 9 5
21 22 21 19 17 17 15 15 15 12 13 15 14 15 17 16 20 21 22 25 26 28 32 32 32 33 36 36 36 37 37 37 36 36 36 37 37 36 36 35 35 35 36 36 35 36 36 37 36 36 35 33 29 23
21 23 22 21 19 18 17 16 16 15 13 14 13 14 14 16 17 16 17 21 23 24 27 29 27 29 31 32 33 33 34 33 31 30 29 30 30 30 30 30 30 31 31 30 31 32 33 35 36 36 37 37 37 36
20 21 22 24 23 21 20 18 17 16 16 15 13 12 12 13 14 13 14 17 19 18 19 23 24 24 25 26 26 26 26 26 25 24 24 25 24 23 23 22 22 24 25 25 26 28 29 31 32 32 33 35 36 36
Wind_Direction
262 263 264 264 264 265 266 268 267 267 268 270 272 273 273 273 271 270 270 269 268 267 266 266 265 265 265 266 267 267 269 269 270 271 271 272 273 273 271 271 271 270 269 269 269 268 267 264 260 259 259 259 255 253
261 263 266 266 267 266 264 264 264 268 271 275 276 278 278 277 275 273 271 269 267 266 265 265 266 266 266 267 269 270 271 272 273 273 273 273 273 274 275 275 274 273 273 272 271 269 268 264 260 257 257 255 254 252
259 260 261 263 265 266 267 268 269 271 274 277 280 283 282 281 280 279 274 268 265 263 262 262 264 265 266 268 269 271 272 273 274 275 275 275 274 275 276 278 278 278 275 273 270 267 266 265 262 259 256 252 251 249
260 261 262 264 266 267 269 270 271 273 276 281 283 282 283 288 291 287 281 274 269 267 264 262 265 267 269 269 271 272 273 273 273 273 275 277 278 279 280 279 279 276 271 270 271 269 267 267 264 259 255 251 246 246
257 257 260 263 264 267 270 271 274 277 281 279 276 277 277 276 281 285 293 292 286 281 277 274 273 273 273 273 273 273 274 275 276 278 278 279 280 281 281 282 274 271 274 275 273 271 267 264 261 256 251 248 246 243
255 257 260 261 265 268 272 275 278 280 278 275 274 274 274 281 291 291 287 284 282 281 280 279 277 276 276 276 276 276 277 277 277 277 278 279 279 280 280 275 272 275 274 271 270 271 270 261 260 257 251 249 248 244
253 253 255 258 261 265 269 274 278 274 270 272 272 271 276 285 290 289 287 286 285 284 283 284 284 283 282 281 280 279 279 279 279 279 279 278 278 276 273 270 270 269 271 269 269 270 265 260 258 259 257 255 253 250
253 253 253 255 259 261 265 272 272 267 267 270 275 281 284 289 289 289 288 288 289 289 289 290 289 287 285 283 282 280 279 278 278 277 276 276 275 274 270 268 266 263 264 265 267 268 267 261 255 257 258 256 254 251
253 253 250 252 255 259 264 270 264 265 271 276 281 284 286 287 289 289 290 292 293 294 297 297 295 292 289 288 286 284 281 279 277 275 274 273 273 270 266 265 262 260 258 261 265 266 264 269 266 263 264 260 256 254
245 250 247 248 252 256 266 262 259 268 276 280 286 287 287 289 290 291 294 296 299 302 302 300 296 295 293 290 287 284 282 280 278 275 273 271 269 267 264 260 259 257 255 256 260 262 263 265 269 269 269 268 265 262
236 243 244 246 250 257 262 261 264 269 274 284 287 287 289 290 293 296 299 302 304 304 303 300 300 297 293 290 289 289 287 282 279 276 275 272 268 265 261 260 257 254 253 253 254 260 259 262 262 267 270 267 264 261
229 237 244 245 248 253 259 261 267 272 282 285 287 288 290 295 299 301 303 305 305 306 304 302 298 296 295 293 290 286 284 284 283 279 274 270 265 262 258 254 250 248 246 248 251 258 262 265 274 274 270 267 263 262
227 235 240 245 250 255 262 268 274 279 283 287 289 290 294 299 302 303 305 307 309 306 305 303 303 303 303 299 295 290 283 282 281 277 271 266 263 259 252 246 241 237 241 245 249 258 272 278 274 278 276 274 268 256
227 233 238 243 251 257 264 272 278 283 283 287 291 294 297 301 302 305 307 310 307 307 307 308 304 303 301 300 301 301 283 272 274 276 266 264 252 247 237 232 232 235 237 242 257 272 279 286 294 289 279 275 264 248
233 238 243 249 258 263 268 272 275 279 284 289 294 296 299 301 305 308 311 309 307 309 311 312 312 308 304 304 304 305 294 276 272 263 252 244 237 230 221 217 219 221 233 248 265 270 283 292 290 279 278 269 246 216
235 239 246 253 258 263 267 273 277 282 288 293 296 297 300 304 307 309 309 306 306 308 317 316 315 311 304 305 307 312 307 288 268 249 232 229 224 216 207 209 212 217 233 239 245 277 299 331 297 275 243 200 180 171
240 245 249 255 261 266 273 278 282 287 291 295 296 299 303 306 309 309 307 306 308 306 301 301 306 303 307 309 312 315 311 283 255 240 222 215 213 206 200 206 211 217 224 205 238 267 30 16 177 208 177 146 154 160
241 247 255 262 269 274 277 282 287 291 294 296 298 302 306 307 308 307 306 305 308 308 308 299 299 302 309 313 315 319 312 284 263 239 215 205 207 202 202 206 209 210 215 200 205 167 177 207 115 101 119 136 148 147
248 257 264 269 273 278 284 287 290 292 294 297 301 304 306 306 307 308 305 302 308 315 306 304 303 309 313 316 316 317 314 290 265 243 219 208 205 204 206 209 216 211 214 197 194 185 174 175 157 155 142 150 151 152
254 264 273 279 282 284 287 290 291 294 297 301 302 303 303 306 311 313 312 313 314 319 317 310 311 308 308 315 315 312 305 290 270 249 230 215 211 208 210 211 219 213 217 209 201 207 189 181 181 180 212 182 166 168
264 276 280 283 285 289 291 292 294 298 299 299 300 299 299 310 320 317 311 309 321 329 327 303 304 303 301 304 309 311 303 291 276 260 242 230 220 219 220 218 220 219 208 211 215 210 207 198 198 196 206 215 196 183
272 279 286 289 289 290 292 295 297 297 296 295 293 295 304 313 321 319 320 315 321 329 332 329 317 313 313 316 332 327 307 291 274 267 249 246 241 232 227 226 226 229 223 215 218 219 215 210 210 212 214 218 225 213
279 285 286 288 291 294 296 297 296 293 293 297 302 312 312 313 319 331 337 334 331 339 342 336 332 331 336 345 346 337 322 310 294 275 264 246 244 247 251 250 239 231 231 231 227 225 226 224 222 220 223 228 231 233
282 284 289 294 296 298 301 301 300 306 311 316 317 322 330 340 345 340 336 340 346 345 342 342 348 355 353 343 339 332 320 318 309 274 259 258 251 237 236 250 258 263 253 244 240 236 232 231 231 230 230 229 234 239
289 291 296 301 309 323 329 319 312 317 339 350 350 1 359 355 347 343 344 346 348 351 353 0 6 8 15 19 22 18 4 342 323 326 304 257 237 233 238 248 248 250 255 259 262 258 258 250 244 244 245 244 242 240
308 320 340 5 26 25 18 359 357 27 31 27 18 9 6 6 6 7 7 10 15 15 23 32 35 41 39 37 39 45 56 57 51 47 44 44 39 7 256 249 248 249 252 254 253 253 253 255 257 257 258 256 255 252
60 53 47 45 38 34 34 32 22 33 36 32 28 21 28 30 31 32 33 40 45 51 57 58 59 60 63 65 64 62 61 58 56 58 58 55 55 56 57 59 43 292 271 266 264 261 258 256 253 250 248 246 247 248
53 48 44 38 36 33 28 30 30 29 26 31 45 45 51 51 53 53 54 56 60 64 67 70 72 71 70 70 70 69 71 72 73 73 74 72 70 68 67 68 66 62 57 47 8 309 285 275 271 269 267 263 260 257
50 45 43 40 39 39 39 42 43 39 44 52 63 68 68 68 67 69 69 69 70 72 73 74 74 76 77 76 76 76 75 74 75 76 75 74 73 72 71 70 70 69 67 63 59 52 43 31 12 348 324 306 291 277
46 43 45 44 43 45 49 50 52 54 58 65 70 74 77 77 74 74 76 76 75 77 76 77 79 79 79 80 79 79 78 77 77 77 78 76 75 75 75 74 72 71 70 68 65 66 66 65 61 54 46 37 24 6
52 46 48 47 46 49 53 58 58 58 63 69 72 73 78 79 75 76 80 80 79 81 84 82 80 81 81 79 77 76 73 71 69 69 71 72 71 70 69 69 69 69 68 67 65 63 62 60 57 56 54 52 50 49
59 52 49 49 50 51 51 56 59 59 64 70 73 76 78 73 72 75 79 83 87 87 88 88 85 83 81 78 75 72 71 69 67 66 66 67 66 64 63 63 63 64 65 65 64 63 60 58 57 54 55 57 58 59
61 55 51 50 51 53 54 54 57 57 63 65 62 63 70 74 76 85 86 89 93 91 93 95 91 86 83 80 75 73 70 66 62 60 59 60 61 62 63 63 63 62 60 57 55 55 55 54 54 53 53 54 53 53
Height
10712 10714 10715 10717 10718 10719 10720 10721 10721 10721 10721 10721 10720 10719 10718 10716 10714 10713 10711 10709 10709 10708 10706 10706 10707 10707 10707 10705 10702 10703 10702 10700 10702 10699 10695 10694 10692 10687 10686 10685 10682 10680 10676 10672 10667 10667 10678 10686 10683 10674 10692 10704 10715 10721
10696 10698 10699 10700 10701 10702 10703 10704 10705 10705 10705 10704 10703 10701 10698 10695 10691 10687 10686 10683 10680 10679 10680 10681 10681 10680 10680 10679 10676 10675 10675 10674 10671 10668 10667 10664 10663 10658 10655 10652 10646 10644 10641 10640 10637 10633 10627 10635 10638 10639 10650 10664 10666 10680
10679 10680 10682 10684 10685 10687 10688 10689 10688 10688 10687 10686 10683 10679 10675 10670 10665 10659 10655 10652 10650 10651 10654 10655 10655 10655 10655 10653 10651 10649 10648 10645 10644 10639 10636 10633 10630 10630 10628 10623 10616 10610 10605 10601 10598 10594 10589 10591 10600 10605 10614 10624 10634 10638
10661 10663 10665 10667 10668 10670 10671 10671 10671 10670 10670 10667 10664 10659 10656 10650 10644 10638 10632 10630 10628 10629 10632 10635 10633 10632 10632 10630 10627 10624 10623 10619 10615 10613 10609 10604 10600 10599 10598 10594 10588 10572 10567 10568 10575 10569 10565 10567 10569 10573 10577 10585 10597 10607
10642 10645 10647 10650 10652 10653 10654 10654 10654 10653 10651 10648 10646 10644 10641 10637 10632 10627 10623 10622 10620 10619 10617 10618 10617 10614 10612 10608 10604 10600 10597 10594 10590 10583 10580 10575 10569 10570 10568 10563 10551 10541 10549 10554 10555 10545 10548 10542 10540 10546 10550 10554 10565 10576
10623 10627 10630 10633 10635 10637 10638 10637 10636 10636 10634 10632 10630 10629 10626 10623 10620 10617 10614 10613 10609 10606 10603 10601 10599 10595 10590 10586 10580 10574 10569 10565 10560 10555 10549 10544 10542 10543 10545 10533 10523 10530 10532 10531 10533 10530 10528 10525 10519 10521 10528 10533 10543 10553
10604 10610 10614 10617 10619 10621 10623 10623 10622 10621 10620 10619 10616 10615 10612 10609 10607 10603 10600 10596 10593 10590 10586 10581 10577 10571 10566 10560 10554 10546 10539 10533 10528 10525 10520 10518 10516 10518 10519 10508 10510 10509 10512 10513 10515 10514 10510 10507 10508 10507 10513 10518 10525 10532
10585 10592 10598 10602 10604 10606 10608 10609 10609 10609 10607 10605 10603 10601 10599 10596 10592 10588 10584 10580 10577 10572 10568 10561 10554 10546 10539 10531 10523 10518 10512 10507 10503 10497 10494 10491 10490 10493 10495 10486 10489 10492 10495 10496 10499 10500 10495 10493 10495 10494 10499 10504 10508 10510
10567 10575 10581 10586 10589 10593 10595 10596 10597 10596 10595 10593 10591 10588 10585 10581 10577 10573 10569 10565 10560 10555 10546 10538 10528 10517 10509 10502 10496 10489 10482 10479 10477 10473 10473 10470 10470 10472 10472 10469 10469 10474 10479 10482 10485 10485 10485 10483 10483 10485 10487 10489 10493 10495
10553 10561 10567 10572 10577 10580 10582 10583 10584 10584 10583 10580 10578 10574 10570 10566 10562 10559 10553 10547 10541 10532 10521 10511 10500 10491 10484 10476 10469 10466 10460 10456 10454 10453 10453 10453 10453 10453 10454 10452 10453 10458 10463 10470 10470 10472 10476 10476 10473 10473 10476 10475 10478 10479
10542 10550 10555 10560 10564 10567 10569 10570 10572 10572 10570 10568 10565 10561 10556 10552 10548 10543 10536 10529 10520 10510 10498 10486 10478 10469 10461 10455 10451 10446 10442 10440 10438 10437 10438 10437 10438 10438 10438 10439 10441 10444 10450 10456 10458 10460 10464 10465 10463 10463 10463 10463 10463 10462
10534 10540 10545 10548 10552 10555 10557 10559 10559 10559 10558 10556 10551 10546 10543 10539 10533 10527 10518 10508 10497 10486 10475 10466 10458 10450 10445 10440 10435 10430 10427 10425 10425 10423 10424 10424 10425 10425 10428 10429 10432 10435 10440 10444 10448 10449 10451 10451 10453 10453 10452 10451 10452 10452
10525 10530 10535 10539 10542 10545 10547 10548 10549 10548 10546 10542 10538 10534 10530 10524 10517 10509 10500 10489 10477 10466 10457 10448 10441 10436 10430 10425 10422 10420 10416 10412 10411 10412 10412 10413 10415 10417 10420 10422 10425 10428 10432 10437 10439 10440 10442 10443 10443 10442 10441 10440 10440 10441
10516 10521 10526 10529 10533 10535 10537 10537 10537 10536 10533 10530 10526 10521 10516 10510 10502 10493 10483 10472 10459 10451 10444 10438 10431 10425 10419 10412 10408 10406 10405 10402 10400 10401 10402 10405 10406 10409 10412 10416 10419 10424 10428 10430 10432 10435 10435 10434 10433 10432 10431 10431 10431 10433
10509 10515 10519 10522 10524 10526 10526 10526 10525 10523 10521 10518 10513 10507 10502 10494 10486 10477 10467 10457 10448 10441 10436 10429 10423 10417 10412 10406 10400 10397 10394 10393 10392 10392 10394 10396 10399 10402 10407 10411 10415 10419 10421 10426 10429 10429 10430 10430 10428 10426 10426 10426 10427 10429
10503 10508 10511 10513 10514 10515 10516 10516 10514 10512 10509 10505 10499 10492 10486 10480 10470 10461 10453 10445 10438 10432 10428 10423 10417 10411 10404 10398 10392 10388 10387 10386 10385 10385 10387 10389 10393 10397 10402 10406 10410 10415 10418 10423 10425 10425 10428 10426 10424 10423 10423 10424 10426 10429
10497 10500 10503 10505 10506 10506 10507 10506 10503 10500 10496 10491 10485 10479 10472 10464 10456 10448 10441 10434 10428 10423 10418 10414 10410 10403 10397 10392 10386 10382 10381 10381 10378 10379 10381 10384 10388 10392 10397 10401 10406 10411 10415 10420 10422 10425 10426 10425 10425 10424 10424 10425 10429 10434
10491 10494 10496 10497 10498 10498 10497 10495 10492 10488 10483 10478 10471 10466 10459 10450 10444 10437 10430 10425 10420 10415 10410 10406 10401 10396 10390 10386 10382 10378 10376 10376 10375 10374 10376 10379 10383 10387 10392 10395 10400 10406 10410 10416 10419 10424 10425 10425 10424 10425 10426 10429 10434 10438
10486 10488 10489 10490 10489 10488 10487 10484 10481 10476 10471 10465 10459 10452 10445 10439 10433 10428 10423 10418 10413 10409 10403 10398 10393 10387 10383 10379 10376 10373 10371 10371 10371 10371 10371 10375 10378 10382 10386 10389 10394 10401 10406 10411 10415 10419 10423 10424 10424 10426 10429 10431 10436 10440
10480 10481 10482 10482 10480 10478 10476 10473 10469 10464 10458 10453 10446 10439 10433 10429 10424 10418 10413 10409 10405 10401 10396 10390 10386 10381 10376 10373 10370 10368 10366 10366 10366 10367 10367 10369 10372 10375 10379 10382 10386 10396 10403 10407 10412 10415 10420 10422 10425 10426 10427 10431 10435 10440
10474 10475 10474 10473 10470 10468 10465 10461 10456 10452 10445 10438 10435 10429 10425 10422 10418 10413 10409 10404 10399 10393 10388 10384 10381 10376 10371 10367 10365 10362 10361 10360 10361 10361 10362 10364 10367 10370 10374 10378 10380 10386 10395 10401 10406 10411 10416 10419 10420 10422 10424 10427 10432 10439
10469 10467 10466 10463 10460 10457 10453 10448 10443 10438 10434 10430 10426 10421 10418 10416 10413 10408 10403 10399 10393 10386 10382 10378 10374 10371 10367 10363 10360 10357 10356 10356 10356 10357 10358 10360 10363 10366 10368 10371 10375 10380 10386 10393 10398 10403 10408 10412 10416 10418 10419 10422 10426 10431
10462 10460 10457 10453 10450 10445 10440 10436 10432 10429 10427 10424 10421 10418 10415 10411 10407 10402 10396 10392 10386 10381 10377 10372 10369 10365 10360 10356 10354 10353 10353 10353 10353 10353 10354 10356 10359 10363 10365 10368 10370 10372 10376 10383 10390 10395 10400 10404 10409 10413 10415 10418 10420 10423
10454 10450 10447 10443 10439 10435 10432 10429 10426 10425 10423 10421 10418 10415 10412 10407 10402 10398 10392 10387 10382 10377 10373 10369 10366 10361 10358 10357 10354 10353 10352 10351 10351 10351 10352 10354 10356 10357 10360 10363 10366 10369 10372 10377 10380 10385 10390 10394 10397 10401 10404 10408 10410 10413
10446 10442 10439 10437 10434 10431 10428 10425 10424 10423 10422 10420 10417 10414 10410 10406 10402 10396 10390 10384 10380 10376 10372 10368 10365 10363 10360 10358 10356 10354 10353 10352 10352 10352 10352 10352 10353 10354 10356 10359 10361 10364 10367 10370 10373 10376 10381 10386 10388 10391 10393 10396 10399 10402
10441 10439 10437 10435 10433 10430 10428 10426 10424 10422 10421 10418 10416 10414 10411 10407 10401 10395 10390 10385 10380 10377 10373 10371 10368 10364 10362 10361 10359 10358 10356 10354 10353 10353 10352 10351 10352 10352 10354 10356 10358 10360 10362 10364 10367 10369 10371 10375 10378 10380 10382 10385 10387 10391
10443 10440 10437 10435 10433 10431 10429 10428 10426 10424 10422 10421 10419 10416 10412 10407 10403 10399 10394 10389 10385 10382 10378 10375 10372 10370 10369 10367 10364 10362 10359 10357 10357 10355 10354 10354 10354 10354 10355 10356 10357 10358 10359 10360 10361 10362 10363 10365 10366 10367 10368 10370 10372 10373
10445 10442 10440 10437 10435 10433 10431 10429 10428 10427 10425 10423 10420 10418 10414 10413 10410 10406 10402 10398 10394 10391 10387 10383 10381 10378 10377 10374 10372 10370 10369 10367 10364 10363 10362 10361 10360 10360 10360 10360 10360 10361 10361 10361 10361 10360 10360 10359 10359 10358 10358 10357 10356 10357
10448 10445 10443 10441 10438 10436 10434 10432 10431 10429 10428 10427 10424 10423 10421 10420 10418 10413 10411 10409 10405 10401 10398 10394 10391 10390 10388 10385 10384 10383 10381 10380 10377 10373 10371 10371 10372 10371 10370 10369 10368 10367 10366 10365 10364 10363 10361 10359 10357 10354 10352 10350 10348 10346
10451 10449 10446 10444 10441 10439 10437 10435 10434 10433 10432 10430 10429 10428 10426 10426 10425 10421 10419 10417 10415 10411 10409 10407 10406 10404 10400 10397 10396 10395 10393 10393 10392 10388 10385 10384 10384 10383 10381 10379 10379 10376 10374 10374 10373 10371 10368 10365 10361 10357 10353 10349 10345 10343
10454 10452 10450 10447 10445 10443 10441 10439 10438 10437 10436 10434 10434 10433 10431 10431 10429 10428 10427 10424 10423 10421 10418 10418 10418 10414 10411 10410 10408 10406 10403 10402 10402 10400 10398 10395 10394 10393 10391 10389 10388 10386 10383 10381 10380 10377 10373 10369 10366 10362 10357 10353 10348 10344
10458 10456 10454 10451 10449 10447 10445 10444 10442 10442 10440 10439 10439 10439 10438 10437 10435 10435 10434 10432 10431 10430 10427 10426 10427 10425 10421 10420 10418 10417 10414 10413 10413 10412 10410 10406 10404 10403 10401 10400 10398 10395 10393 10392 10389 10385 10382 10378 10374 10371 10367 10363 10359 10355
10462 10460 10459 10457 10454 10452 10450 10448 10447 10446 10445 10445 10445 10444 10443 10441 10440 10440 10439 10438 10437 10437 10436 10434 10434 10432 10430 10428 10427 10426 10425 10424 10423 10421 10419 10415 10412 10411 10409 10408 10406 10403 10400 10398 10395 10392 10390 10387 10384 10381 10378 10373 10368 10365